| time (UTC) | temp F | wind direction | speed MPH | gust MPH | rain 1hr in | rain 24hr in | rain mn in | humidity % | barometer mb |
| 20260906051533 | 52 | 112 | 1.0 | 4.0 | 0.00 | 0.01 | 0.00 | 93 | 1018.5 |
| 20260906050107 | 53 | 112 | 0.0 | 2.0 | 0.00 | 0.01 | 0.00 | 93 | 1018.6 |
| 20260906044534 | 53 | 115 | 3.0 | 4.0 | 0.00 | 0.01 | 0.00 | 93 | 1018.5 |
| 20260906043030 | 53 | 134 | 2.0 | 4.0 | 0.00 | 0.01 | 0.00 | 92 | 1018.6 |
| 20260906041540 | 53 | 112 | 2.0 | 4.0 | 0.00 | 0.01 | 0.00 | 92 | 1018.5 |
| 20260906041531 | 53 | 120 | 2.0 | 4.0 | 0.00 | 0.01 | 0.00 | 91 | 1018.4 |
| 20260906034605 | 54 | 112 | 3.0 | 4.0 | 0.00 | 0.01 | 0.00 | 89 | 1018.3 |
| 20260906033029 | 54 | 112 | 0.0 | 3.0 | 0.00 | 0.01 | 0.00 | 88 | 1018.1 |
| 20260906031529 | 55 | 112 | 0.0 | 2.0 | 0.00 | 0.01 | 0.00 | 86 | 1017.9 |
| 20260906030030 | 57 | 142 | 1.0 | 3.0 | 0.00 | 0.01 | 0.00 | 85 | 1017.8 |
| 20260906024532 | 59 | 169 | 0.0 | 2.0 | 0.00 | 0.01 | 0.00 | 83 | 1017.8 |
| 20260906023031 | 61 | 180 | 2.0 | 4.0 | 0.00 | 0.01 | 0.00 | 80 | 1017.7 |
| 20260906021528 | 62 | 199 | 1.0 | 5.0 | 0.00 | 0.01 | 0.00 | 78 | 1017.7 |
| 20260906020030 | 63 | 212 | 1.0 | 5.0 | 0.00 | 0.01 | 0.00 | 75 | 1017.6 |
| 20260906014605 | 64 | 224 | 2.0 | 4.0 | 0.00 | 0.01 | 0.00 | 72 | 1017.6 |
| 20260906013106 | 65 | 219 | 1.0 | 3.0 | 0.00 | 0.01 | 0.00 | 70 | 1017.7 |
| 20260906011531 | 65 | 192 | 2.0 | 5.0 | 0.00 | 0.01 | 0.00 | 70 | 1017.8 |
| 20260906010106 | 65 | 210 | 2.0 | 5.0 | 0.00 | 0.01 | 0.00 | 72 | 1018.0 |
| 20260906004528 | 65 | 221 | 2.0 | 5.0 | 0.00 | 0.01 | 0.00 | 71 | 1018.1 |
| 20260906000042 | 62 | 163 | 3.0 | 7.0 | 0.00 | 0.01 | 0.00 | 78 | 1018.4 |
| 20260905234609 | 62 | 169 | 4.0 | 7.0 | 0.00 | 0.01 | 0.00 | 78 | 1018.4 |
| 20260905233028 | 63 | 202 | 3.0 | 8.0 | 0.00 | 0.01 | 0.00 | 76 | 1018.3 |
| 20260905231531 | 64 | 234 | 3.0 | 9.0 | 0.00 | 0.01 | 0.00 | 73 | 1018.2 |
| 20260905230031 | 65 | 188 | 1.0 | 4.0 | 0.00 | 0.01 | 0.00 | 72 | 1018.1 |
| 20260905224530 | 66 | 288 | 1.0 | 5.0 | 0.00 | 0.01 | 0.00 | 69 | 1018.0 |
| 20260905223030 | 66 | 330 | 2.0 | 7.0 | 0.00 | 0.01 | 0.00 | 68 | 1018.0 |
| 20260905221607 | 67 | 315 | 0.0 | 2.0 | 0.00 | 0.01 | 0.00 | 67 | 1018.0 |
| 20260905213033 | 65 | 183 | 1.0 | 5.0 | 0.00 | 0.01 | 0.00 | 66 | 1018.3 |
| 20260905211532 | 65 | 179 | 3.0 | 6.0 | 0.00 | 0.01 | 0.00 | 67 | 1018.5 |
| 20260905210033 | 65 | 208 | 2.0 | 6.0 | 0.00 | 0.01 | 0.00 | 68 | 1018.6 |
| 20260905204635 | 66 | 220 | 2.0 | 6.0 | 0.00 | 0.01 | 0.00 | 67 | 1018.6 |
| 20260905203031 | 66 | 200 | 2.0 | 5.0 | 0.00 | 0.01 | 0.00 | 67 | 1018.6 |
| 20260905201536 | 66 | 222 | 2.0 | 4.0 | 0.00 | 0.01 | 0.00 | 65 | 1018.7 |
| 20260905194531 | 67 | 327 | 1.0 | 5.0 | 0.00 | 0.01 | 0.00 | 65 | 1018.9 |
| 20260905193030 | 65 | 333 | 2.0 | 6.0 | 0.00 | 0.01 | 0.00 | 68 | 1019.1 |
| 20260905191531 | 63 | 1 | 2.0 | 5.0 | 0.00 | 0.01 | 0.00 | 72 | 1019.3 |
| 20260905190029 | 62 | 8 | 3.0 | 7.0 | 0.00 | 0.01 | 0.00 | 75 | 1019.5 |
| 20260905184531 | 61 | 7 | 2.0 | 7.0 | 0.00 | 0.01 | 0.00 | 78 | 1019.7 |
| 20260905183031 | 60 | 341 | 1.0 | 5.0 | 0.00 | 0.01 | 0.00 | 79 | 1019.9 |
| 20260905180028 | 59 | 321 | 1.0 | 4.0 | 0.00 | 0.01 | 0.00 | 88 | 1020.1 |
| 20260905174530 | 57 | 334 | 0.0 | 3.0 | 0.00 | 0.01 | 0.00 | 91 | 1020.2 |
| 20260905173030 | 57 | 327 | 0.0 | 3.0 | 0.00 | 0.01 | 0.00 | 93 | 1020.2 |
| 20260905171529 | 56 | 337 | 0.0 | 2.0 | 0.00 | 0.01 | 0.00 | 95 | 1020.1 |
| 20260905164607 | 55 | 337 | 0.0 | 0.0 | 0.00 | 0.01 | 0.00 | 98 | 1020.2 |
| 20260905163029 | 54 | 337 | 0.0 | 2.0 | 0.00 | 0.01 | 0.00 | 98 | 1020.1 |
| 20260905160031 | 54 | 202 | 0.0 | 0.0 | 0.00 | 0.01 | 0.00 | 98 | 1020.1 |
| 20260905153032 | 53 | 202 | 0.0 | 0.0 | 0.00 | 0.01 | 0.00 | 98 | 1020.2 |
| 20260905151531 | 52 | 202 | 0.0 | 0.0 | 0.00 | 0.01 | 0.00 | 98 | 1020.1 |
| 20260905150031 | 52 | 201 | 0.0 | 2.0 | 0.00 | 0.01 | 0.00 | 98 | 1020.0 |
| 20260905144529 | 52 | 135 | 0.0 | 0.0 | 0.00 | 0.01 | 0.00 | 98 | 1019.9 |
| 20260905143107 | 51 | 145 | 0.0 | 0.0 | 0.00 | 0.02 | 0.00 | 98 | 1019.8 |
| 20260905141532 | 51 | 157 | 0.0 | 0.0 | 0.00 | 0.02 | 0.00 | 98 | 1019.8 |
| 20260905140031 | 50 | 142 | 0.0 | 2.0 | 0.00 | 0.02 | 0.00 | 98 | 1019.7 |
| 20260905134531 | 50 | 112 | 0.0 | 0.0 | 0.00 | 0.02 | 0.00 | 98 | 1019.5 |
| 20260905131607 | 50 | 112 | 0.0 | 0.0 | 0.00 | 0.02 | 0.00 | 98 | 1019.3 |
| 20260905130032 | 51 | 134 | 0.0 | 2.0 | 0.00 | 0.02 | 0.00 | 98 | 1019.2 |
| 20260905124531 | 51 | 135 | 1.0 | 4.0 | 0.00 | 0.02 | 0.00 | 98 | 1019.2 |
| 20260905123030 | 51 | 169 | 0.0 | 3.0 | 0.00 | 0.02 | 0.00 | 98 | 1019.4 |
| 20260905121529 | 51 | 180 | 0.0 | 3.0 | 0.00 | 0.02 | 0.00 | 97 | 1019.3 |
| 20260905114532 | 50 | 135 | 0.0 | 2.0 | 0.00 | 0.02 | 0.00 | 97 | 1019.2 |
| 20260905113105 | 51 | 135 | 2.0 | 3.0 | 0.00 | 0.02 | 0.00 | 97 | 1019.1 |
| 20260905110032 | 51 | 135 | 1.0 | 4.0 | 0.00 | 0.02 | 0.00 | 97 | 1019.0 |
| 20260905104530 | 51 | 135 | 1.0 | 3.0 | 0.00 | 0.02 | 0.00 | 97 | 1019.1 |
| 20260905103032 | 52 | 135 | 0.0 | 0.0 | 0.00 | 0.02 | 0.00 | 97 | 1019.0 |
| 20260905101530 | 52 | 135 | 0.0 | 0.0 | 0.00 | 0.02 | 0.00 | 97 | 1019.0 |
| 20260905100031 | 52 | 135 | 0.0 | 2.0 | 0.00 | 0.02 | 0.00 | 97 | 1019.0 |
| 20260905094530 | 52 | 135 | 0.0 | 0.0 | 0.00 | 0.02 | 0.00 | 97 | 1019.1 |
| 20260905093033 | 52 | 135 | 0.0 | 1.0 | 0.00 | 0.02 | 0.00 | 96 | 1019.1 |
| 20260905091530 | 52 | 135 | 0.0 | 2.0 | 0.00 | 0.02 | 0.00 | 96 | 1019.0 |
| 20260905090031 | 52 | 135 | 0.0 | 2.0 | 0.00 | 0.02 | 0.00 | 96 | 1018.9 |
| 20260905084530 | 52 | 143 | 0.0 | 2.0 | 0.00 | 0.02 | 0.00 | 96 | 1018.9 |
| 20260905083031 | 52 | 186 | 0.0 | 0.0 | 0.00 | 0.02 | 0.00 | 96 | 1018.8 |
| 20260905081606 | 52 | 202 | 0.0 | 0.0 | 0.00 | 0.02 | 0.00 | 96 | 1018.7 |
| 20260905080028 | 52 | 202 | 0.0 | 2.0 | 0.00 | 0.02 | 0.00 | 96 | 1018.6 |
| 20260905074607 | 53 | 167 | 1.0 | 4.0 | 0.00 | 0.02 | 0.00 | 95 | 1018.5 |
| 20260905073031 | 53 | 115 | 3.0 | 5.0 | 0.00 | 0.02 | 0.00 | 95 | 1018.3 |
| 20260905071608 | 53 | 154 | 1.0 | 3.0 | 0.01 | 0.02 | 0.00 | 95 | 1018.2 |
| 20260905070030 | 54 | 161 | 1.0 | 4.0 | 0.01 | 0.02 | 0.00 | 95 | 1018.1 |
| 20260905064531 | 54 | 112 | 0.0 | 2.0 | 0.01 | 0.02 | 0.02 | 95 | 1017.9 |
| 20260905063031 | 54 | 114 | 0.0 | 3.0 | 0.01 | 0.02 | 0.01 | 94 | 1017.9 |
| 20260905060032 | 54 | 157 | 0.0 | 0.0 | 0.00 | 0.01 | 0.01 | 93 | 1017.9 |
| 20260905053031 | 54 | 135 | 1.0 | 3.0 | 0.00 | 0.01 | 0.01 | 92 | 1017.7 |